Regional Weather Roundup
Issued by NWS

Home | Current Version | Previous Version | Text Only | Print | Product List | Glossary On
Versions: 1 2 3 4 5 6 7 8 9 10 11 12 13 14 15 16 17 18 19 20 21 22 23 24 25 26 27 28 29 30 31 32 33 34 35 36 37 38 39 40 41 42 43 44 45 46 47 48 49 50
000
ASUS42 KTBW 290410
RWRFL
FLORIDA REGIONAL WEATHER ROUNDUP
NATIONAL WEATHER SERVICE TAMPA BAY RUSKIN FL
1200 AM EDT TUE JUL 29 2014

NOTE: "FAIR" INDICATES FEW OR NO CLOUDS BELOW 12,000 FEET WITH NO
SIGNIFICANT WEATHER AND/OR OBSTRUCTIONS TO VISIBILITY.


FLZ001>010-012>015-112-114-115-290500-
PANHANDLE FLORIDA

CITY           SKY/WX    TMP DP  RH WIND       PRES   REMARKS
PENSACOLA      CLOUDY    77  75  93 NW3       29.97S
PENSACOLA NAS  CLOUDY    78  77  96 CALM      29.97S
MILTON NAS     MOCLDY    76  71  85 W5        29.98S
CRESTVIEW      PTCLDY    77  73  87 CALM      29.99S
DUKE FIELD     MOCLDY    77  75  92 W6        29.97R
VALPARAISO     MOCLDY    79  75  88 W7        29.96F
TRI COUNTY     FAIR      75  74  96 CALM      29.96S
PANAMA CITY    FAIR      78  72  81 SW3       29.95S
TYNDALL AFB    MOCLDY    80  75  84 W7        29.96F
APALACHICOLA   CLOUDY    76  76 100 W6        29.96R

STATION/POSITION SKY/WX   TEMP    WIND        PRES    WAVE   SWELL
                          AIR SEA DIR/SP/G            HT/PER HT/PER
                          (F)     (DEG/KT/KT) (MB)    (FT/S) (FT/S)
30.1N   87.6W              84 84  270/ 12/ 16 1015.0R   2/ 5
29.2N   88.2W              85 86  260/ 16/ 19 1016.2R
28.8N   86.0W              85 85  270/ 17/ 19 1015.1F   4/ 5
PANAMA CITY BEAC           82 83  290/ 11/ 12 1014.2F
CAPE SAN BLAS    NOT AVBL
TOWER C                    83     270/ 14/ 16 1014.7R
28.5N   84.5W              85 86  260/ 16/ 17 1015.1F   4/ 6

$$
FLZ011-016>038-118-127-128-134-139-239-290500-
NORTH FLORIDA

CITY           SKY/WX    TMP DP  RH WIND       PRES   REMARKS
MARIANNA       CLEAR     74  74 100 SW3       29.95S
TALLAHASSEE    MOCLDY    74  74  99 W6        29.94R
PERRY          LGT RAIN  79  72  78 W6        29.95R
CROSS CITY       N/A     82  78  88 SW6       29.92F
GAINESVILLE    MOCLDY    81  77  88 SW12      29.94F
MAYPORT NAS    MOCLDY    85  75  72 SW9       29.91F
JACKSONVILLE   MOCLDY    82  77  84 SW9       29.90F
JAX NAS        MOCLDY    86  76  71 SW13      29.93F HX  96
JAX CRAIG      MOCLDY    84  75  74 SW10      29.92F
JAX CECIL      MOCLDY    81  77  89 S6        29.92F
FERNANDINA BEA FAIR      82  73  74 W10       29.90S
ST AUGUSTINE   MOCLDY    82  75  79 SW8       29.94F

STATION/POSITION SKY/WX   TEMP    WIND        PRES    WAVE   SWELL
                          AIR SEA DIR/SP/G            HT/PER HT/PER
                          (F)     (DEG/KT/KT) (MB)    (FT/S) (FT/S)
SHELL POINT                79     280/  5/  8   N/A
KEATON BEACH               84     310/  9/ 12 1013.7S
CEDAR KEY                  85     280/  9/ 13 1015.2F
FERNANDINA                 83 85  240/ 10/ 14 1012.2S
30.7N   81.3W                 85                N/A     2/ 3
MAYPORT                    84 85  250/ 10/ 12   N/A
31.4N   80.9W              86 85  250/ 19/ 23 1011.5R   3/ 4
ST AUGUSTINE               80     240/  7/  9 1014.3F

$$
FLZ040-043>046-052-053-057-058-063-144-290500-
INTERIOR CENTRAL FLORIDA

CITY           SKY/WX    TMP DP  RH WIND       PRES   REMARKS
OCALA          MOCLDY    79  70  73 SW6       29.97F
LEESBURG       MOCLDY    82  77  84 SW8       29.99S
SANFORD        PTCLDY    83  76  79 SW9       29.97F
ORLANDO EXEC   PTCLDY    83  76  79 W10       29.98F
ORLANDO INTL   PTCLDY    82  75  79 SW7       29.99F
WINTER HAVEN   CLEAR     81  75  82 SW5       30.01F
LAKELAND         N/A     79  75  89 SW8       30.01F
BARTOW         FAIR      79  77  94 SW6       30.02S
OKEECHOBEE       N/A     77  73  88 MISG      30.03R

$$
FLZ041-047-054-059-064-141-147-290500-
EAST CENTRAL FLORIDA

CITY           SKY/WX    TMP DP  RH WIND       PRES   REMARKS
DAYTONA BEACH  PTCLDY    81  76  84 SW7       29.96F
DELAND         PTCLDY    81  75  83 MISG      29.97F
JFK SPACE CTR  PTCLDY    83  77  81 W10       29.97F
CAPE CANAVERAL PTCLDY    84  76  76 W8        29.97F
PATRICK AFB    PTCLDY    84  76  77 W12       29.99S
MELBOURNE      PTCLDY    82  74  76 W9        29.99S
VERO BEACH     CLEAR     81  74  79 W9        30.00F
FT PIERCE      CLEAR     80  73  79 W5        30.01S
STUART         PTCLDY    81  73  78 W7        30.03S

STATION/POSITION SKY/WX   TEMP    WIND        PRES    WAVE   SWELL
                          AIR SEA DIR/SP/G            HT/PER HT/PER
                          (F)     (DEG/KT/KT) (MB)    (FT/S) (FT/S)
28.5N   80.2W              85 85  240/ 12/ 14 1015.2F
28.9N   78.5W              84 84  210/ 17/ 21 1015.1S   3/ 4   2/ 8
TRIDENT PIER               84 85  230/  8/ 10 1015.0S
28.4N   80.5W                 85                N/A     1/ 9
27.6N   80.2W                 83                N/A     1/ 8

$$
FLZ050-056-061-142-242-148-248-149-249-151-251-155-255-
160-260-290500-
WEST CENTRAL FLORIDA

CITY           SKY/WX    TMP DP  RH WIND       PRES   REMARKS
CRYSTAL RIVER  FAIR      82  75  78 W7        29.96F
INVERNESS      FAIR      81  72  74 CALM      29.98F
BROOKSVILLE    PTCLDY    83  75  77 W9        30.00F
ZEPHYRHILLS    FAIR      79  77  94 SW3       30.01S
CLEARWATER     PTCLDY    84  75  74 W9        30.00F
TAMPA INTL     PTCLDY    84  76  76 W12       30.00F
TAMPA EXEC     PTCLDY    81  75  83 CALM      30.01S
PLANT CITY     PTCLDY    82  77  83 W6        30.03S
MACDILL AFB    PTCLDY    84  78  83 W6        30.01S
ST PETERSBURG  PTCLDY    86  75  69 W10       29.99F HX  95
SARASOTA       PTCLDY    86  74  67 W12       30.00F
VENICE         FAIR      84  75  74 W9        30.03F

STATION/POSITION SKY/WX   TEMP    WIND        PRES    WAVE   SWELL
                          AIR SEA DIR/SP/G            HT/PER HT/PER
                          (F)     (DEG/KT/KT) (MB)    (FT/S) (FT/S)
CEDAR KEY                  85     280/  9/ 13 1015.2F
28.5N   84.5W              85 86  260/ 16/ 17 1015.1F   4/ 6
27.3N   84.3W                 87                N/A     3/ 6
CLEARWATER BEACH           86 89  260/ 16/ 18 1015.6S
MIDDLE TAMPA BAY           86     290/ 15/ 16 1016.3R
VENICE                     86 90  260/ 11/ 13 1016.3S

$$
FLZ066-069-070-075>078-162-262-165-265-290500-
SOUTHWEST FLORIDA AND KEYS

CITY           SKY/WX    TMP DP  RH WIND       PRES   REMARKS
PUNTA GORDA    PTCLDY    84  76  76 W7        30.04F
FT MYERS       CLEAR     81  75  82 W3        30.03S
SOUTHWEST INTL CLEAR     81  74  79 W3        30.03F
NAPLES         CLEAR     84  79  85 W6        30.04S HX  96
MARATHON       PTCLDY    84  76  76 CALM      30.05S
KEY WEST NAS   PTCLDY    85  75  72 CALM      30.06R
KEY WEST INTL  CLEAR     85  76  74 CALM      30.07R

STATION/POSITION SKY/WX   TEMP    WIND        PRES    WAVE   SWELL
                          AIR SEA DIR/SP/G            HT/PER HT/PER
                          (F)     (DEG/KT/KT) (MB)    (FT/S) (FT/S)
VENICE                     86 90  260/ 11/ 13 1016.3S
NAPLES                     85 93   CALM  /  1 1017.8R
DRY TORTUGAS               85     310/  2/  2 1018.3R
NW FL BAY                  87     290/  5/  6 1017.9R
SAND KEY                   86     360/  2/  3 1017.9R
SOMBRERO KEY               85      CALM  /  1 1018.5R
LONG KEY                   86 92  250/  3/  5 1018.4S
MOLASSES REEF              85 87  220/  9/ 10 1017.6S

$$
FLZ067-068-071>074-168-172>174-290500-
SOUTHEAST FLORIDA

CITY           SKY/WX    TMP DP  RH WIND       PRES   REMARKS
W PALM BEACH   MOCLDY    84  75  74 W7        30.02S
FT LAUDER-EXEC CLEAR     84  77  79 W7        30.03S
FT LAUDERDALE  PTCLDY    86  74  67 W7        30.03S
POMPANO BEACH  CLEAR    N/A N/A N/A MISG      30.03S
PEMBROKE PINES CLEAR     84  74  71 SW6       30.05S
OPA LOCKA      CLEAR     84  73  69 W7        30.05R
MIAMI          PTCLDY    84  73  69 W5        30.05R
WEST KENDALL   CLEAR     82  75  79 SW6       30.05S
HOMESTEAD      CLEAR     80  75  86 SW5       30.05S

STATION/POSITION SKY/WX   TEMP    WIND        PRES    WAVE   SWELL
                          AIR SEA DIR/SP/G            HT/PER HT/PER
                          (F)     (DEG/KT/KT) (MB)    (FT/S) (FT/S)
PORT EVERGLADES            86     250/  4/  6 1017.0
VIRGINIA KEY               86 90  250/ 11/ 13   N/A
LAKE WORTH                 85 83              1016.7R
FOWEY ROCKS                86 86  260/ 15/ 16 1017.8R
SETTLEMENT POINT           85     190/ 15/ 17 1017.3F

$$




USA.gov is the U.S. government's official web portal to all federal, state and local government web resources and services.